Regional Weather Roundup
Issued by NWS

Home | Current Version | Previous Version | Graphics & Text | Print | Product List | Glossary On
Versions: 1 2 3 4 5 6 7 8 9 10 11 12 13 14 15 16 17 18 19 20 21 22 23 24 25 26 27 28 29 30 31 32 33 34 35 36 37 38 39 40 41 42 43 44 45 46 47 48 49 50
000
ASUS44 KMEG 061710
RWRTN
TENNESSEE HOURLY STATE WEATHER ROUNDUP
NATIONAL WEATHER SERVICE MEMPHIS TN
1100 AM CST FRI MAR 06 2015

TNZ002-004-019-021-049-052-054-088>092-061800-
WEST TENNESSEE

CITY           SKY/WX    TMP DP  RH WIND       PRES   REMARKS
MEMPHIS INTL   SUNNY     30  10  43 CALM      30.61F
NWS MEMPHIS      N/A     31 N/A N/A MISG        N/A
JACKSON        SUNNY     26   7  44 NW5       30.61F WCI  20
DYERSBURG      SUNNY     23   0  36 SE6       30.63F WCI  16
UNION CITY     SUNNY     23  10  58 CALM      30.60F
PARIS          SUNNY     25   7  46 CALM      30.58F
LEXINGTON      SUNNY     28  10  47 SW3       30.58S
SAVANNAH       SUNNY     27  10  50 CALM      30.59S
$$

TNZ008-025-027-028-033-062-065-066-061800-
NORTH MIDDLE TENNESSEE

CITY           SKY/WX    TMP DP  RH WIND       PRES   REMARKS
NASHVILLE      SUNNY     28  15  58 CALM      30.59S
CLARKSVILLE    SUNNY     23  11  60 NE3       30.59F
SMYRNA         SUNNY     26  15  63 CALM      30.59S
COOKEVILLE     SUNNY     27  18  69 CALM      30.51S
CROSSVILLE     SUNNY     26  15  63 CALM      30.45F
$$

TNZ061-075-076-078-094-096-097-061800-
SOUTH MIDDLE TENNESSEE

CITY           SKY/WX    TMP DP  RH WIND       PRES   REMARKS
FAYETTEVILLE   SUNNY     25  18  74 VRB3        N/A
TULLAHOMA      SUNNY     27  12  54 NE3         N/A
WINCHESTER     SUNNY     27  18  69 VRB5      30.52S WCI  21
MCMINNVILLE    SUNNY     27  18  69 N3        30.51S
COLUMBIA         N/A     27  18  69 CALM      30.56S
SHELBYVILLE    SUNNY     27  19  74 NW3       30.56S
$$

TNZ017-018-042-046-047-061800-
NORTHEAST TENNESSEE

CITY           SKY/WX    TMP DP  RH WIND       PRES   REMARKS
TRI CITIES     MOSUNNY   30  18  60 NE6       30.44F WCI  24
ELIZABETHTON   SUNNY     28  18  64 VRB3      30.42F
$$

TNZ012-013-036-069-073-074-061800-
CENTRAL EAST TENNESSEE

CITY           SKY/WX    TMP DP  RH WIND       PRES   REMARKS
KNOXVILLE      MOSUNNY   31  20  63 N5        30.49F WCI  26
OAK RIDGE      SUNNY     30  19  63 S3        30.51F
GATLINBURG     MOSUNNY   28  19  69 E3        30.48F
MORRISTOWN     SUNNY     28  18  64 CALM      30.46F
$$

TNZ083-085-099-061800-
SOUTHEAST TENNESSEE

CITY           SKY/WX    TMP DP  RH WIND       PRES   REMARKS
CHATTANOOGA    MOSUNNY   34  18  52 N8        30.52S WCI  27
$$

SKY/WX REPORTED AS FAIR MEANS FEW OR NO CLOUDS BELOW
12 THOUSAND FEET.




USA.gov is the U.S. government's official web portal to all federal, state and local government web resources and services.